Date,TemperatureHighF,TemperatureAvgF,TemperatureLowF,DewpointHighF,DewpointAvgF,DewpointLowF,HumidityHigh,HumidityAvg,HumidityLow,PressureMaxIn,PressureMinIn,WindSpeedMaxMPH,WindSpeedAvgMPH,GustSpeedMaxMPH,PrecipitationSumIn
2013-1-1,35.4,33.8,31.8,33.0,31.9,28.1,96,93,86,30.17,30.06,12,2,12,0.18
2013-1-2,31.8,28.3,23.8,28.1,24.2,21.3,91,84,77,30.27,30.14,12,3,12,0.00
2013-1-3,40.1,31.0,21.2,24.9,21.9,18.6,91,71,43,30.41,30.27,18,3,18,0.00
2013-1-4,39.2,31.9,26.7,27.3,24.7,21.7,84,75,60,30.44,30.37,17,4,17,0.00
2013-1-5,45.9,34.4,21.2,30.6,25.8,18.4,91,72,49,30.42,30.22,12,3,12,0.00
2013-1-6,43.2,37.2,27.8,34.2,29.0,21.1,77,72,69,30.40,30.09,22,7,22,0.00
2013-1-7,41.5,31.6,22.7,28.2,24.1,19.6,90,74,56,30.50,30.27,11,1,11,0.00
2013-1-8,54.1,38.4,24.2,36.1,29.4,20.8,88,72,47,30.38,30.26,17,2,17,0.00
2013-1-9,55.7,46.9,38.2,47.2,41.4,32.6,93,81,70,30.51,30.26,11,2,11,0.00
2013-1-10,55.3,46.2,39.8,50.7,42.0,34.8,93,86,72,30.51,30.08,12,3,12,0.30
2013-1-11,67.6,58.7,53.5,55.3,52.4,49.6,94,81,55,30.09,29.86,25,6,25,0.66
2013-1-12,65.0,61.5,54.2,62.6,59.6,52.4,96,94,88,30.03,29.83,15,3,15,0.08
2013-1-13,66.1,55.5,36.3,60.5,52.7,33.8,96,91,76,30.16,29.78,26,6,26,1.75
2013-1-14,36.4,30.3,26.7,34.3,26.1,22.5,92,84,78,30.46,30.16,16,6,16,0.00
2013-1-15,33.6,29.8,26.2,30.1,26.2,23.4,93,86,78,30.36,30.07,18,7,18,0.07
2013-1-16,33.6,32.5,31.7,31.3,30.7,29.8,94,93,91,30.15,30.00,7,0,7,0.11
2013-1-17,39.7,33.8,30.4,33.3,29.7,25.3,94,85,72,30.41,30.13,23,2,23,0.01
2013-1-18,42.5,31.9,23.5,26.6,22.7,17.7,81,69,50,30.56,30.34,12,3,12,0.00
2013-1-19,55.0,45.0,33.5,31.7,28.0,24.3,70,53,34,30.34,30.04,28,10,28,0.00
2013-1-20,46.2,39.0,27.1,32.2,20.3,9.2,73,48,26,30.24,30.04,23,5,23,0.00
2013-1-21,31.9,24.8,15.6,17.0,10.5,2.1,76,56,34,30.31,30.14,25,6,25,0.00
2013-1-22,22.0,16.1,11.5,4.1,0.3,-2.9,64,50,35,30.46,30.30,23,5,23,0.00
2013-1-23,36.0,24.4,12.8,18.2,10.9,3.2,77,57,41,30.43,30.13,14,3,14,0.00
2013-1-24,29.4,23.3,18.8,19.8,6.6,-1.0,69,50,33,30.59,30.17,28,7,28,0.00
2013-1-25,28.1,24.6,21.6,24.7,17.5,5.6,91,76,49,30.44,30.10,14,4,14,0.00
2013-1-26,37.7,29.2,23.3,25.4,22.4,19.3,93,77,52,30.45,30.23,13,3,13,0.02
2013-1-27,45.3,34.3,22.4,40.1,27.4,18.8,93,77,53,30.44,30.22,12,3,12,0.15
2013-1-28,55.7,51.0,42.0,52.0,46.4,40.1,93,85,72,30.22,30.09,24,7,24,0.17
2013-1-29,67.8,61.1,52.3,58.9,54.9,48.8,89,80,72,30.10,29.64,26,8,26,0.00
2013-1-30,69.9,54.3,33.1,60.2,49.5,25.9,95,84,68,29.67,29.33,39,10,39,0.86
2013-1-31,35.4,30.6,20.6,29.0,22.9,17.6,92,73,57,30.09,29.67,31,10,31,0.00
2013-2-1,21.2,15.3,7.6,17.6,6.5,-0.6,88,68,55,30.50,30.09,26,5,26,0.00
2013-2-2,34.4,26.9,16.1,30.6,22.7,10.7,91,84,76,30.40,30.06,17,4,17,0.06
2013-2-3,30.4,28.5,22.8,26.0,23.7,17.8,87,82,77,30.19,29.99,22,4,22,0.00
2013-2-4,48.3,33.6,15.5,40.9,27.5,12.8,92,79,53,30.17,29.87,26,4,26,0.10
2013-2-5,50.8,43.7,37.5,40.7,36.8,32.8,94,78,52,30.05,29.88,15,5,15,0.00
2013-2-6,45.6,36.6,27.0,34.2,30.6,24.4,92,80,64,30.26,30.05,12,2,12,0.00
2013-2-7,65.0,47.8,35.1,41.2,35.0,30.3,84,64,36,30.20,29.86,14,3,14,0.00
2013-2-8,50.1,39.3,33.7,46.2,34.3,28.3,93,82,74,30.34,29.83,23,7,23,0.08
2013-2-9,43.7,35.3,27.4,28.5,24.9,22.3,82,67,45,30.44,30.22,14,4,14,0.00
2013-2-10,58.9,46.1,33.6,49.3,34.5,22.8,92,66,39,30.22,29.84,28,6,28,0.10
2013-2-11,55.1,49.8,40.5,51.9,37.2,26.3,93,64,42,30.11,29.84,28,9,28,0.01
2013-2-12,51.3,40.5,29.5,30.7,27.3,24.1,82,61,36,30.18,29.91,12,2,12,0.00
2013-2-13,38.7,36.0,29.9,34.9,30.7,27.5,91,81,69,29.97,29.75,17,4,17,0.01
2013-2-14,56.2,42.4,29.9,38.7,33.5,27.6,93,73,44,30.00,29.89,23,6,23,0.00
2013-2-15,43.1,37.7,27.5,35.0,30.0,20.9,87,74,54,30.18,30.00,17,4,17,0.00
2013-2-16,35.4,27.2,19.8,23.9,16.1,8.1,90,65,38,30.18,30.08,21,5,21,0.00
2013-2-17,37.2,27.9,19.2,15.6,13.3,8.2,76,55,34,30.29,30.16,17,3,17,0.00
2013-2-18,61.1,44.4,26.0,38.5,27.1,14.9,70,52,36,30.24,29.82,35,8,35,0.07
2013-2-19,47.8,37.4,25.9,40.7,27.6,17.0,90,69,45,30.18,29.74,32,10,32,0.16
2013-2-20,33.3,26.5,20.5,17.5,14.9,12.7,74,62,49,30.33,30.18,17,4,17,0.00
2013-2-21,36.7,28.1,19.2,28.9,19.4,13.5,88,70,55,30.36,30.05,23,6,23,0.07
2013-2-22,56.6,43.5,32.1,46.0,38.7,28.9,94,84,66,30.06,29.90,24,4,24,0.20
2013-2-23,47.5,39.7,33.0,37.7,29.0,23.9,87,67,43,30.02,29.91,11,3,11,0.00
2013-2-24,46.3,35.3,25.3,28.3,24.7,21.0,84,67,44,30.16,29.97,12,2,12,0.00
2013-2-25,48.4,37.9,26.8,28.4,25.0,21.6,82,61,43,30.15,29.83,22,7,22,0.00
2013-2-26,53.7,44.9,40.1,49.8,38.9,25.3,91,80,53,29.83,29.38,25,7,25,0.46
2013-2-27,40.3,37.1,33.0,37.1,33.9,30.4,92,88,84,29.81,29.59,22,9,22,0.08
2013-2-28,35.5,33.8,32.3,32.9,30.7,28.6,93,88,86,30.01,29.79,17,6,17,0.02
2013-3-1,37.4,34.6,33.1,33.5,32.1,30.6,93,91,82,30.03,29.96,12,3,12,0.01
2013-3-2,33.0,29.4,27.1,30.9,25.2,22.6,92,84,78,30.13,30.02,15,6,15,0.01
2013-3-3,36.9,29.5,24.0,25.2,22.1,18.5,89,75,50,30.14,30.08,17,4,17,0.00
2013-3-4,45.5,33.9,18.8,27.0,21.7,16.0,90,64,37,30.20,29.98,15,3,15,0.00
2013-3-5,46.9,40.3,29.9,45.3,35.5,26.6,95,84,55,29.98,29.58,31,6,31,0.54
2013-3-6,32.4,30.8,29.0,28.8,27.6,26.1,93,88,83,30.32,29.79,25,8,25,0.00
2013-3-7,35.6,33.1,30.7,30.2,28.4,26.3,91,83,72,30.42,30.29,8,2,8,0.01
2013-3-8,45.7,37.6,29.8,31.9,28.3,25.4,85,69,54,30.48,30.36,17,4,17,0.00
2013-3-9,64.3,47.3,31.3,37.3,31.7,26.9,84,58,32,30.37,30.06,17,3,17,0.00
2013-3-10,69.0,59.0,48.9,39.1,35.5,31.5,61,43,25,30.07,29.83,19,4,19,0.00
2013-3-11,60.7,50.2,38.7,52.6,43.9,33.7,95,80,47,29.91,29.66,23,6,23,0.83
2013-3-12,49.2,40.3,35.0,33.7,30.2,27.4,85,68,49,30.09,29.91,17,6,17,0.00
2013-3-13,37.6,32.5,26.6,30.9,22.2,14.9,87,66,48,30.39,30.07,26,8,26,0.00
2013-3-14,46.4,33.6,22.1,29.8,21.1,16.3,84,63,32,30.42,30.25,14,4,14,0.00
2013-3-15,62.2,46.5,30.6,42.2,35.0,27.1,88,66,46,30.25,29.80,13,3,13,0.00
2013-3-16,72.0,60.7,46.3,51.4,46.7,40.9,83,61,45,29.96,29.68,28,9,28,0.00
2013-3-17,46.1,37.3,34.2,41.7,34.9,32.3,94,91,84,30.10,29.93,22,8,22,0.34
2013-3-18,55.4,45.0,35.5,52.7,42.4,33.7,96,91,76,29.93,29.67,24,7,24,1.09
2013-3-19,48.2,40.2,33.4,34.9,23.9,11.9,90,57,24,30.17,29.89,27,7,27,0.00
2013-3-20,47.7,35.3,24.2,24.9,17.9,10.9,74,50,34,30.17,29.98,25,8,25,0.00
2013-3-21,33.2,25.3,19.4,16.1,13.0,11.2,73,60,43,30.09,29.99,17,4,17,0.00
2013-3-22,44.2,31.8,17.6,21.6,17.4,13.9,87,59,34,30.14,30.03,5,2,8,0.00
2013-3-23,51.2,43.0,36.9,30.3,25.3,19.5,61,50,38,30.06,29.83,11,3,15,0.00
2013-3-24,43.9,38.4,34.5,38.3,32.5,25.5,95,81,49,29.84,29.36,15,7,19,0.72
2013-3-25,37.3,32.8,30.4,33.8,30.1,28.2,94,90,82,30.02,29.49,22,9,23,0.06
2013-3-26,40.5,34.6,31.7,32.9,29.8,26.2,93,83,64,30.30,30.02,16,5,16,0.02
2013-3-27,44.9,37.2,28.9,28.8,25.3,23.3,81,63,45,30.37,30.29,12,3,12,0.00
2013-3-28,50.2,38.6,25.7,28.4,25.6,22.1,87,62,38,30.40,30.31,11,2,11,0.00
2013-3-29,57.1,42.6,29.0,39.9,32.2,24.8,88,69,33,30.35,30.22,14,2,14,0.00
2013-3-30,60.4,45.5,29.3,44.0,36.3,27.8,96,74,39,30.26,29.95,22,2,22,0.00
2013-3-31,60.3,51.4,46.5,48.6,45.0,40.8,95,80,54,29.95,29.81,15,4,15,0.15
2013-4-1,51.2,45.8,38.0,45.1,31.7,18.8,89,60,33,30.15,29.84,19,6,19,0.00
2013-4-2,49.4,39.2,26.0,23.4,19.2,13.9,82,47,26,30.29,30.14,15,2,15,0.00
2013-4-3,49.2,39.1,25.4,21.8,19.2,16.0,79,47,29,30.41,30.27,25,5,25,0.00
2013-4-4,51.3,43.7,35.0,34.3,24.9,18.0,63,47,40,30.30,30.01,15,4,19,0.00
2013-4-5,64.8,49.8,31.2,35.6,30.9,26.3,89,53,28,30.12,30.00,20,3,20,0.00
2013-4-6,72.7,56.2,40.4,40.0,33.7,27.8,61,44,26,30.17,29.93,17,3,17,0.00
2013-4-7,71.3,62.9,53.6,50.5,44.2,36.4,61,51,45,30.00,29.92,25,8,25,0.00
2013-4-8,75.7,63.7,51.2,55.8,49.7,43.9,77,61,46,29.99,29.89,26,5,26,0.00
2013-4-9,81.0,68.9,57.5,59.1,55.3,50.6,79,64,43,30.06,29.93,26,6,26,0.00
2013-4-10,84.2,72.1,59.5,62.3,57.9,53.7,82,63,42,29.98,29.76,25,6,25,0.00
2013-4-11,71.8,65.3,58.4,61.8,57.6,54.1,95,77,55,29.78,29.54,19,4,19,0.62
2013-4-12,58.6,49.2,39.9,56.7,39.7,32.4,95,71,52,29.96,29.53,23,7,23,0.17
2013-4-13,63.0,49.1,35.5,38.1,34.6,31.4,86,60,35,30.07,29.95,20,5,20,0.00
2013-4-14,73.2,56.8,39.2,50.0,41.8,35.1,87,61,33,30.05,29.85,20,3,20,0.01
2013-4-15,69.8,62.7,55.8,55.6,52.7,49.3,81,70,58,29.99,29.90,15,4,15,0.00
2013-4-16,82.5,70.1,60.7,65.6,60.0,53.2,92,71,56,30.18,29.95,32,6,32,0.44
2013-4-17,72.5,64.7,60.0,64.3,61.1,58.3,95,88,73,30.15,29.95,22,4,22,0.79
2013-4-18,83.6,72.2,61.5,63.3,57.5,51.4,87,63,37,29.95,29.62,30,8,30,0.00
2013-4-19,73.2,49.9,39.5,61.7,41.1,31.6,92,73,55,30.05,29.43,33,9,33,0.83
2013-4-20,56.5,45.5,34.7,36.0,30.4,25.3,85,59,32,30.37,30.05,19,5,19,0.00
2013-4-21,57.7,47.9,36.4,37.5,31.2,27.9,72,54,37,30.48,30.33,19,6,19,0.00
2013-4-22,71.0,57.1,39.6,46.0,38.0,30.3,73,50,33,30.34,30.11,12,2,12,0.00
2013-4-23,72.0,60.1,46.1,53.2,47.5,40.8,83,64,48,30.13,29.91,18,4,18,0.00
2013-4-24,64.5,52.7,40.2,55.6,45.9,34.5,93,78,63,30.26,29.80,25,7,25,0.93
2013-4-25,61.8,47.7,31.1,39.2,34.9,29.0,93,65,38,30.37,30.26,19,3,19,0.00
2013-4-26,61.2,51.4,36.9,41.2,35.7,31.6,85,57,38,30.46,30.31,14,2,14,0.00
2013-4-27,58.2,54.7,50.7,53.1,47.6,38.6,93,77,55,30.35,30.03,18,3,18,0.27
2013-4-28,69.4,59.5,52.6,61.8,54.6,50.5,95,84,67,30.03,29.83,23,6,23,0.49
2013-4-29,65.3,58.1,51.7,56.0,52.6,49.1,93,83,65,30.01,29.92,8,2,8,0.00
2013-4-30,77.7,63.4,46.0,59.3,52.1,44.1,94,70,40,30.04,29.95,15,2,15,0.00
2013-5-1,81.6,69.1,52.8,60.0,55.8,50.1,92,65,41,30.15,30.03,16,2,16,0.00
2013-5-2,78.0,67.7,58.0,58.5,53.8,50.6,77,62,42,30.17,30.05,13,2,13,0.00
2013-5-3,76.3,67.5,59.3,59.1,54.4,46.5,80,64,48,30.05,29.89,21,4,21,0.00
2013-5-4,67.1,59.4,53.6,52.1,48.0,42.0,94,67,50,29.98,29.90,20,4,20,0.27
2013-5-5,53.9,51.6,48.8,52.2,49.4,46.6,94,92,90,29.96,29.85,25,8,25,0.97
2013-5-6,66.3,56.0,52.3,56.5,52.2,48.4,94,87,63,29.91,29.79,28,7,28,0.18
2013-5-7,71.2,60.9,53.4,58.5,55.1,51.7,95,82,57,29.96,29.88,15,2,15,0.22
2013-5-8,75.5,62.0,54.4,60.9,57.1,53.3,97,86,52,30.02,29.90,24,2,24,0.03
2013-5-9,82.3,68.2,55.0,61.5,57.2,51.4,96,71,38,30.03,29.93,15,3,15,0.02
2013-5-10,67.4,63.3,60.7,62.3,59.6,56.6,95,88,72,29.95,29.83,20,4,20,0.00
2013-5-11,62.7,58.2,53.8,60.8,53.5,48.4,94,85,67,29.98,29.84,16,5,16,0.02
2013-5-12,59.7,51.7,41.4,48.3,34.6,26.3,89,55,29,30.15,29.98,21,5,21,0.02
2013-5-13,65.3,52.8,37.1,40.9,34.7,30.4,87,54,28,30.21,30.12,22,4,22,0.01
2013-5-14,82.4,64.0,43.5,59.4,49.1,39.1,88,61,41,30.17,29.86,23,6,23,0.04
2013-5-15,88.0,76.2,66.7,60.8,55.9,47.3,71,52,29,29.97,29.85,22,8,22,0.05
2013-5-16,76.1,66.8,61.8,65.0,58.1,48.0,96,75,47,29.98,29.88,16,4,16,0.02
2013-5-17,78.5,68.8,60.5,66.3,62.4,59.1,96,82,54,30.04,29.96,13,2,13,0.04
2013-5-18,77.5,69.5,63.7,67.2,64.6,61.8,95,85,68,30.01,29.92,13,2,13,0.01
2013-5-19,86.3,73.3,63.0,71.2,66.9,61.8,97,82,54,29.99,29.87,11,2,11,0.01
2013-5-20,86.8,75.6,64.5,71.4,66.9,61.7,92,75,55,30.00,29.87,15,4,15,0.00
2013-5-21,86.8,72.9,64.6,70.0,65.6,62.1,93,80,48,29.93,29.80,32,4,32,0.00
2013-5-22,77.5,68.6,61.7,67.8,63.1,59.7,94,83,63,29.86,29.74,16,4,16,0.01
2013-5-23,74.4,64.6,56.4,62.4,59.0,52.3,95,83,56,30.03,29.81,22,5,22,0.01
2013-5-24,66.7,57.8,50.8,52.1,46.2,41.4,86,67,41,30.30,30.03,19,5,19,0.01
2013-5-25,67.5,57.5,43.6,51.8,46.2,38.3,93,68,42,30.35,30.17,11,1,11,0.01
2013-5-26,72.5,62.1,53.2,54.2,51.5,47.8,91,70,46,30.28,30.15,11,2,11,0.02
2013-5-27,85.8,72.1,59.0,60.7,55.4,50.8,79,59,30,30.17,29.96,19,4,19,0.02
2013-5-28,86.7,76.5,66.8,63.8,59.9,56.8,75,58,37,30.04,29.92,26,6,26,0.00
2013-5-29,87.0,75.9,64.2,67.4,62.6,58.1,82,65,46,30.09,29.97,16,4,16,0.00
2013-5-30,88.3,77.1,64.6,68.2,64.8,60.8,88,67,48,30.12,29.98,18,4,18,0.00
2013-5-31,83.8,74.2,67.5,71.9,66.4,62.7,91,77,58,30.04,29.92,22,5,22,0.09
2013-6-1,83.5,74.2,69.0,71.2,67.0,63.6,91,79,63,29.96,29.77,26,6,26,0.07
2013-6-2,80.6,71.1,64.3,66.0,63.0,58.8,93,77,55,29.90,29.83,14,4,14,0.01
2013-6-3,73.0,65.6,59.8,58.8,56.5,52.8,92,74,54,30.02,29.89,11,4,12,0.01
2013-6-4,75.8,65.7,54.5,59.4,55.5,51.3,89,71,53,30.08,30.00,16,4,16,0.00
2013-6-5,84.9,70.7,59.9,66.8,59.7,50.8,89,69,49,30.02,29.83,11,2,11,0.00
2013-6-6,77.8,70.6,65.7,70.2,65.7,63.2,94,85,68,29.85,29.72,12,3,12,0.03
2013-6-7,78.8,68.4,61.7,63.9,60.9,56.4,95,79,49,29.83,29.74,15,4,15,0.01
2013-6-8,82.2,71.2,62.6,66.7,61.4,59.1,90,73,51,30.00,29.83,12,2,12,0.00
2013-6-9,80.3,68.8,59.6,69.2,63.5,57.0,92,84,57,30.03,29.88,16,3,16,0.03
2013-6-10,77.3,69.7,64.4,67.8,64.9,62.7,96,85,66,29.89,29.79,16,5,16,0.07
2013-6-11,85.7,74.1,61.8,68.1,64.7,60.1,95,75,50,29.98,29.88,13,3,13,0.00
2013-6-12,93.8,82.7,70.3,75.0,70.8,66.0,87,69,50,29.93,29.76,21,6,21,0.00
2013-6-13,82.2,80.8,80.2,71.8,71.4,71.0,75,73,70,29.77,29.67,22,10,22,0.00
2013-6-14,81.7,76.1,66.7,61.6,60.0,57.2,82,58,46,30.02,29.97,11,2,11,0.00
2013-6-15,87.0,74.3,59.4,64.4,60.5,57.1,93,65,38,30.09,29.95,14,2,14,0.00
2013-6-16,84.5,73.8,67.0,69.6,65.4,61.2,93,76,59,30.03,29.93,18,3,18,0.00
2013-6-17,88.5,74.0,66.0,73.9,67.9,64.3,95,83,58,29.96,29.84,20,2,20,0.00
2013-6-18,84.5,71.7,63.1,68.4,64.2,61.0,95,80,49,29.94,29.81,28,3,28,0.00
2013-6-19,79.7,70.6,62.1,66.3,62.3,60.1,95,77,55,30.07,29.93,15,3,15,0.00
2013-6-20,86.5,74.4,61.3,66.9,61.7,57.8,90,67,42,30.17,30.07,12,2,12,0.00
2013-6-21,75.7,68.0,64.4,66.7,62.7,60.9,89,83,72,30.18,30.13,7,0,7,0.00
2013-6-24,88.0,75.9,69.5,72.4,68.8,64.3,91,80,54,30.11,30.02,25,4,25,0.00
2013-6-25,91.3,79.0,66.9,74.8,70.6,65.2,95,77,53,30.06,29.90,14,4,14,0.00
2013-6-26,87.7,75.5,67.2,74.8,69.3,64.7,96,82,61,29.95,29.72,37,5,37,0.00
2013-6-27,86.0,75.1,67.4,76.1,70.8,66.2,96,87,70,29.80,29.72,17,4,17,0.00
2013-6-28,87.5,78.5,69.3,70.9,65.4,57.5,92,67,38,29.73,29.58,15,5,19,0.00
2013-6-29,84.5,73.2,64.3,67.0,62.8,60.4,90,72,48,29.65,29.56,23,4,23,0.00
2013-6-30,82.8,71.3,61.9,65.2,62.1,59.1,95,75,46,29.78,29.62,10,2,10,0.00
2013-7-1,80.0,69.3,62.7,68.7,64.7,60.9,94,86,58,29.89,29.75,16,2,16,0.00
2013-7-2,84.5,71.1,61.1,69.8,64.4,59.9,97,81,56,30.01,29.86,10,2,10,0.00
2013-7-3,79.3,73.1,67.1,70.2,67.8,65.3,94,84,70,30.09,30.00,11,2,11,0.00
2013-7-4,71.5,68.1,64.9,68.8,65.8,63.3,95,92,86,30.12,30.04,14,2,14,0.00
2013-7-5,76.7,70.0,64.7,72.2,67.8,63.5,97,93,83,30.12,30.06,11,2,11,0.00
2013-7-6,73.0,69.4,67.2,69.4,67.3,65.7,96,93,83,30.11,30.05,13,2,13,0.00
2013-7-7,85.3,74.3,65.8,69.2,66.3,63.9,97,78,53,30.11,30.02,10,2,10,0.00
2013-7-8,89.3,78.1,65.8,72.8,68.5,64.0,95,75,47,30.13,30.02,10,2,10,0.00
2013-7-9,91.3,81.7,73.5,74.2,71.6,68.4,91,73,48,30.08,29.97,15,3,15,0.00
2013-7-10,93.3,78.2,70.6,78.8,72.3,68.2,94,83,58,29.99,29.81,23,4,23,0.00
2013-7-11,84.3,75.0,69.2,71.9,68.0,63.6,96,80,58,29.96,29.90,16,4,16,0.00
2013-7-12,78.9,70.9,62.0,63.5,58.9,55.5,84,67,46,30.05,29.96,19,5,19,0.00
2013-7-13,81.0,71.8,63.2,67.5,62.9,58.9,88,75,53,30.07,29.99,17,4,17,0.00
2013-7-14,90.1,78.0,68.1,74.6,70.1,65.3,92,78,57,30.17,30.06,19,2,19,0.00
2013-7-15,90.2,81.0,71.4,72.7,70.0,66.5,89,70,49,30.26,30.17,11,2,11,0.00
2013-7-16,92.8,82.1,70.0,76.9,70.6,66.0,92,70,43,30.29,30.20,9,1,9,0.00
2013-7-17,92.8,81.9,73.0,75.0,72.4,69.6,92,75,49,30.27,30.14,13,2,13,0.00
2013-7-18,90.8,80.9,72.8,78.6,74.0,71.0,94,81,61,30.17,30.00,12,1,12,0.00
2013-7-19,92.7,81.5,72.3,76.6,73.2,70.1,93,77,54,30.03,29.89,14,4,14,0.00
2013-7-20,91.5,82.0,73.8,74.3,72.2,70.3,91,74,51,29.92,29.82,17,4,17,0.00
2013-7-21,85.8,78.1,72.4,73.4,71.3,67.2,94,80,58,29.93,29.83,11,2,11,0.00
2013-7-22,81.5,74.7,71.4,73.3,71.0,69.0,95,89,71,29.89,29.75,15,3,15,0.00
2013-7-23,89.0,78.7,69.9,74.8,71.9,65.5,96,81,59,29.83,29.71,23,5,23,0.00
2013-7-24,77.0,70.3,64.0,68.5,62.5,58.9,94,77,59,29.93,29.77,13,4,13,0.00
2013-7-25,79.9,69.4,59.9,63.4,59.7,56.7,90,73,51,30.05,29.93,14,3,14,0.00
2013-7-26,83.5,71.5,58.2,65.0,60.8,56.1,93,71,46,30.06,29.95,11,1,11,0.00
2013-7-27,76.9,70.5,66.2,66.3,64.6,61.0,94,82,68,29.95,29.84,13,3,13,0.00
2013-7-28,76.0,66.6,55.6,61.1,53.2,45.9,88,64,43,30.06,29.89,13,3,13,0.00
2013-7-29,81.5,68.8,54.5,62.3,57.2,52.2,92,69,44,30.16,30.06,16,2,16,0.00
2013-7-30,80.3,69.6,60.8,66.5,62.5,58.5,93,80,54,30.20,30.09,9,1,9,0.00
2013-7-31,68.3,66.2,64.2,64.9,62.6,61.6,93,88,85,30.12,30.10,10,4,10,0.00
2013-8-7,87.5,79.9,72.6,77.2,73.2,70.1,96,80,66,29.93,29.83,15,4,15,0.00
2013-8-8,85.3,76.7,72.1,75.4,72.7,70.2,96,88,69,29.95,29.85,13,3,13,0.01
2013-8-9,86.8,76.2,72.2,74.9,72.2,70.2,95,88,66,29.99,29.90,15,5,15,0.00
2013-8-10,81.2,75.4,71.2,74.7,71.7,69.7,97,89,75,30.08,29.99,9,1,9,0.00
2013-8-11,88.5,78.7,71.7,73.2,71.2,69.2,95,79,57,30.07,29.99,15,2,15,0.00
2013-8-12,83.8,73.9,67.5,75.5,69.9,65.3,96,88,74,30.04,29.86,15,2,15,0.00
2013-8-13,79.8,72.2,64.8,72.7,66.6,56.7,95,83,63,30.00,29.85,17,4,17,0.00
2013-8-14,71.9,63.8,54.2,56.6,52.9,50.6,90,69,50,30.12,30.00,17,4,17,0.00
2013-8-15,73.9,64.3,53.3,57.2,53.6,49.6,88,70,48,30.14,30.03,18,4,18,0.00
2013-8-16,78.5,68.6,58.9,63.6,58.9,55.1,88,72,57,30.11,30.04,13,4,13,0.00
2013-8-17,82.2,70.8,63.3,66.9,61.3,58.1,85,73,54,30.14,30.06,12,3,12,0.00
2013-8-18,82.0,71.0,62.0,68.3,64.4,59.6,93,80,60,30.14,30.06,9,1,9,0.00
2013-8-19,85.5,74.2,65.2,70.5,67.4,63.6,96,80,53,30.11,30.02,13,1,13,0.00
2013-8-20,83.7,72.9,65.8,72.4,68.0,63.7,94,85,63,30.13,30.05,15,2,15,0.00
2013-8-21,86.8,73.6,66.8,73.5,68.2,64.2,96,84,55,30.15,30.04,27,2,27,0.00
2013-8-22,88.1,77.6,68.3,74.6,70.2,66.9,96,80,56,30.10,29.99,28,2,28,0.00
2013-8-23,84.8,75.8,69.2,71.5,68.1,65.2,94,78,55,30.08,29.99,15,2,15,0.00
2013-8-24,85.0,74.6,63.7,69.0,63.0,52.2,93,70,34,30.22,30.08,14,2,14,0.00
2013-8-25,87.8,74.2,59.8,68.6,62.9,57.3,92,70,45,30.30,30.19,10,1,10,0.00
2013-8-26,89.0,77.4,65.8,72.1,68.4,63.4,93,75,51,30.24,30.07,16,3,16,0.00
2013-8-27,89.5,78.9,70.6,75.3,71.9,68.2,92,80,61,30.09,29.95,14,5,14,0.00
2013-8-28,92.5,80.6,71.9,74.4,71.3,68.2,94,75,49,29.99,29.88,11,5,14,0.00
2013-8-29,87.5,78.6,71.1,74.2,70.3,67.9,91,76,58,29.98,29.90,14,3,14,0.00
2013-8-30,91.2,78.8,66.5,73.5,69.6,64.7,95,76,49,29.95,29.82,9,1,9,0.00
2013-8-31,76.2,75.0,73.7,72.3,71.5,70.7,91,89,86,29.86,29.80,12,2,12,0.00
2013-9-3,78.8,71.0,62.7,64.9,60.7,56.8,90,71,53,30.03,29.90,16,4,16,0.00
2013-9-4,80.7,67.5,54.6,63.2,58.7,52.6,95,76,49,30.13,30.03,10,1,10,0.00
2013-9-5,83.2,71.0,58.5,66.1,61.9,56.6,94,75,50,30.18,30.10,12,1,12,0.00
2013-9-6,81.0,70.9,61.9,65.5,61.4,57.0,94,74,45,30.18,30.07,12,2,12,0.00
2013-9-7,86.7,73.3,59.2,68.7,63.9,56.8,93,74,51,30.07,29.94,10,2,10,0.00
2013-9-8,88.8,77.1,67.1,72.5,68.5,65.3,95,77,48,29.97,29.90,8,1,8,0.00
2013-9-9,90.8,79.2,68.8,73.5,69.8,66.9,94,75,50,30.02,29.94,12,2,12,0.00
2013-9-10,91.8,80.4,70.9,75.3,71.8,68.4,92,76,55,30.12,30.01,12,3,12,0.00
2013-9-11,90.5,78.7,71.0,75.7,71.2,67.5,94,79,56,30.15,30.03,16,3,16,0.00
2013-9-12,83.7,73.8,67.2,72.9,68.2,65.0,95,83,66,30.03,29.86,19,4,19,0.00
2013-9-13,69.5,63.3,51.7,65.0,52.3,45.4,90,69,45,30.05,29.89,20,6,20,0.00
2013-9-14,69.5,58.0,47.7,51.0,47.4,44.1,91,70,42,30.14,30.05,16,3,16,0.00
2013-9-15,79.8,64.1,47.4,61.5,54.6,44.9,92,73,51,30.13,30.03,15,3,15,0.00
2013-9-16,71.5,66.3,62.5,63.2,60.6,56.8,92,82,71,30.22,30.05,14,3,14,0.00
2013-9-17,75.2,64.3,54.2,57.9,54.8,51.6,92,74,48,30.26,30.12,18,4,18,0.00
2013-9-18,75.2,67.6,59.5,67.1,62.7,55.4,92,85,76,30.15,30.06,15,2,15,0.00
2013-9-19,80.5,71.0,63.4,71.4,66.7,61.9,95,87,72,30.13,29.98,12,2,12,0.00
2013-9-20,86.8,75.5,67.4,69.4,67.0,64.5,92,77,55,29.99,29.78,18,4,18,0.00
2013-9-21,71.7,65.4,56.8,69.0,59.1,50.4,95,81,53,29.85,29.68,16,4,16,0.04
2013-9-22,68.8,58.7,49.4,52.8,50.2,47.4,93,75,53,29.98,29.84,13,3,13,0.02
2013-9-23,70.8,59.4,48.7,53.6,49.9,46.2,92,73,49,30.07,29.97,18,3,18,0.00
2013-9-24,79.4,64.2,51.4,63.7,56.0,48.6,90,76,51,30.05,29.86,9,2,9,0.00
2013-9-25,76.7,68.2,61.7,65.3,61.1,57.6,91,79,58,29.88,29.81,17,3,17,0.00
2013-9-26,77.5,63.4,52.2,62.2,55.9,50.1,94,78,49,30.04,29.88,11,1,11,0.00
2013-9-27,80.0,65.4,52.8,62.8,55.8,50.4,93,74,44,30.15,30.04,11,1,11,0.00
2013-9-28,81.8,66.2,52.2,63.4,57.0,49.8,93,75,44,30.17,30.05,11,2,11,0.00
2013-9-29,74.6,64.2,57.7,60.9,58.6,55.4,93,83,59,30.07,29.99,17,3,17,0.00
2013-9-30,77.5,67.8,60.9,61.6,59.9,58.6,93,78,54,30.03,29.94,16,3,16,0.00
2013-10-1,81.0,68.5,58.4,65.1,61.3,56.1,93,79,55,30.09,30.00,14,2,14,0.00
2013-10-2,81.5,70.6,60.5,70.9,65.8,58.8,95,85,69,30.11,30.01,10,1,10,0.00
2013-10-3,82.2,72.4,67.5,70.0,67.1,65.0,95,84,62,30.08,29.99,13,2,13,0.00
2013-10-4,85.0,73.0,63.5,69.2,65.7,61.7,95,79,54,30.09,30.00,12,2,12,0.00
2013-10-5,84.7,72.1,67.8,70.2,67.3,64.8,95,86,61,30.04,29.91,19,2,19,0.00
2013-10-6,71.9,64.7,53.7,69.3,62.9,51.9,97,94,88,29.91,29.74,21,3,21,0.00
2013-10-7,63.4,54.7,46.7,52.5,47.1,44.3,94,77,51,30.15,29.85,15,4,15,0.00
2013-10-8,66.5,54.5,41.8,50.3,46.0,39.9,95,75,50,30.25,30.14,23,4,23,0.00
2013-10-9,74.2,58.7,44.8,55.6,49.3,42.3,92,73,47,30.21,30.13,9,1,9,0.00
2013-10-10,72.7,58.6,45.4,53.3,47.7,42.6,93,71,37,30.18,30.06,10,1,10,0.00
2013-10-11,76.8,61.3,47.5,56.9,51.5,45.4,94,73,44,30.10,30.00,7,1,7,0.00
2013-10-12,79.8,63.6,49.7,59.4,54.1,47.8,94,75,42,30.11,30.01,11,1,11,0.00
2013-10-13,76.0,63.1,52.3,63.4,57.3,50.1,94,82,62,30.25,30.10,14,2,14,0.00
2013-10-14,71.3,60.7,50.9,58.8,53.4,45.9,92,78,62,30.29,30.13,13,3,13,0.00
2013-10-15,74.5,65.7,58.0,62.2,60.1,54.8,95,83,63,30.16,29.93,13,3,13,0.00
2013-10-16,65.3,62.0,57.5,62.0,59.7,54.6,94,92,89,29.97,29.91,12,3,12,0.00
2013-10-17,57.9,53.6,45.5,56.5,49.4,43.6,95,86,73,30.01,29.87,14,3,14,0.00
2013-10-18,65.5,52.1,39.3,50.5,44.4,38.0,96,78,47,30.08,29.96,14,2,14,0.00
2013-10-19,51.8,47.1,39.9,49.5,44.0,38.0,94,89,79,30.06,29.85,23,3,23,0.00
2013-10-20,61.7,47.9,36.3,44.6,39.6,34.9,95,76,45,30.11,30.03,15,3,15,0.00
2013-10-21,68.0,53.8,39.2,45.4,41.5,36.3,90,66,36,30.07,29.93,17,4,17,0.00
2013-10-22,56.2,48.7,38.0,48.5,37.4,29.6,90,67,41,30.07,29.84,19,2,19,0.00
2013-10-23,47.7,44.0,39.1,43.9,37.4,32.3,88,78,61,30.09,29.75,22,5,22,0.00
2013-10-24,48.2,40.1,35.7,37.0,33.4,28.8,85,77,56,30.33,30.08,23,4,23,0.00
2013-10-25,48.6,37.8,28.9,31.2,27.8,25.5,89,69,42,30.50,30.33,23,2,23,0.07
2013-10-26,34.7,30.5,28.6,28.7,26.0,24.8,86,83,80,30.35,30.24,7,1,7,0.01
2013-10-28,61.3,52.5,44.3,51.7,46.5,41.3,94,80,66,30.28,30.15,8,1,8,0.00
2013-10-29,59.8,50.3,39.7,56.0,48.5,38.4,97,94,85,30.34,30.19,6,0,6,0.02
2013-10-30,68.4,61.8,55.3,63.9,59.8,54.2,97,93,85,30.19,30.03,13,2,13,0.16
2013-10-31,70.9,65.0,62.3,63.6,59.1,55.4,93,81,69,30.04,29.42,39,9,39,0.06
2013-11-1,65.9,58.8,51.8,63.1,49.6,44.8,94,73,51,29.77,29.47,31,6,31,0.01
2013-11-2,58.6,49.9,43.6,44.9,41.7,36.8,88,74,51,30.12,29.76,19,4,19,0.01
2013-11-3,54.4,45.1,35.0,42.1,37.2,32.6,92,75,54,30.36,30.11,11,2,11,0.00
2013-11-4,63.7,50.8,40.0,44.9,39.6,34.8,82,67,44,30.40,30.30,19,3,19,0.02
2013-11-5,64.8,55.5,48.2,43.8,41.3,38.6,79,60,40,30.42,30.23,12,2,12,0.02
2013-11-6,71.7,59.5,49.1,60.1,51.9,40.2,94,77,61,30.23,29.99,27,6,27,0.03
2013-11-7,51.2,44.0,36.9,47.7,34.6,26.7,93,71,44,30.29,30.02,20,5,20,0.01
2013-11-8,52.9,41.1,29.8,34.5,29.9,27.0,90,67,38,30.42,30.28,14,2,14,0.05
2013-11-9,62.2,47.3,30.3,34.9,31.2,26.4,87,57,31,30.28,30.12,25,6,25,0.03
2013-11-10,54.2,46.3,32.1,39.8,32.1,26.9,83,59,36,30.36,30.18,16,4,16,0.04
2013-11-11,63.7,47.4,29.5,43.3,28.7,20.1,89,55,20,30.33,30.12,22,3,22,0.53
2013-11-12,48.6,33.3,25.5,43.6,24.3,15.8,94,71,45,30.66,30.18,24,8,24,0.01
2013-11-13,41.7,30.0,19.5,25.7,20.9,16.3,89,71,43,30.71,30.46,10,1,10,0.00
2013-11-14,54.5,38.4,24.6,26.3,22.0,18.8,83,56,26,30.46,30.22,19,4,19,0.00
2013-11-15,56.3,44.3,31.2,44.6,33.5,20.9,91,67,44,30.23,30.12,15,2,19,0.04
2013-11-16,62.0,54.2,44.2,56.1,50.8,42.6,96,88,79,30.16,29.93,17,4,17,0.00
2013-11-17,66.5,62.0,53.5,63.8,57.3,43.3,95,85,57,29.94,29.61,23,7,23,1.03
2013-11-18,56.2,48.9,39.9,44.8,37.0,28.3,86,65,40,30.21,29.84,21,5,21,0.00
2013-11-19,43.2,36.7,30.4,31.5,28.5,25.7,83,72,60,30.34,30.21,17,4,17,0.00
2013-11-20,56.1,41.1,28.6,36.1,30.2,24.8,86,67,44,30.33,30.22,15,3,15,0.00
2013-11-21,62.0,51.0,39.3,51.4,42.4,31.3,86,72,65,30.33,30.19,17,2,17,0.00
2013-11-22,56.9,54.0,47.1,55.5,52.0,44.3,95,93,86,30.28,30.18,22,4,22,0.27
2013-11-23,37.9,28.8,23.2,21.5,16.5,12.3,67,60,49,30.58,30.41,23,10,23,0.00
2013-11-24,29.1,23.7,17.7,15.4,12.6,10.4,76,63,48,30.73,30.55,18,3,18,0.00
2013-11-25,43.2,32.6,22.4,31.3,19.7,14.0,93,61,37,30.56,30.22,17,4,17,0.00
2013-11-26,35.2,33.5,31.5,33.8,32.0,29.2,95,94,91,30.24,29.93,10,3,12,0.13
2013-11-27,32.3,28.2,20.6,29.6,23.6,15.1,91,83,74,30.36,29.95,12,6,17,0.00
2013-11-28,38.2,26.3,15.6,23.7,18.0,12.5,88,72,48,30.51,30.35,9,3,16,0.00
2013-11-29,43.7,31.1,18.8,28.3,23.2,15.8,89,74,53,30.66,30.50,4,1,7,0.00
2013-11-30,54.4,39.1,26.8,33.5,27.7,22.8,86,66,43,30.53,30.23,11,3,14,0.00
2013-12-1,51.0,43.9,34.4,36.7,32.5,26.3,84,65,54,30.24,29.98,8,4,12,0.00
2013-12-2,56.4,45.4,33.5,43.4,38.5,30.6,91,78,59,29.98,29.77,6,1,7,0.00
2013-12-3,56.7,49.8,39.0,49.9,45.9,37.3,96,87,77,29.87,29.78,13,2,13,0.00
2013-12-4,68.2,58.3,48.3,59.7,54.1,46.4,95,86,72,29.86,29.73,15,4,18,0.00
2013-12-5,66.7,52.5,34.5,62.5,49.1,32.7,94,89,79,30.14,29.81,21,7,21,0.73
2013-12-6,34.5,31.8,28.6,32.9,30.0,26.3,94,93,91,30.39,30.08,18,4,18,0.42
2013-12-7,28.6,26.6,23.8,26.5,23.7,19.9,93,89,84,30.60,30.38,0,0,0,0.00
2013-12-8,34.4,29.3,24.2,33.4,27.5,20.9,96,93,87,30.51,30.07,8,0,8,0.00
2013-12-9,34.2,31.0,26.7,33.2,28.4,22.6,96,90,83,30.27,30.07,12,2,12,0.08
2013-12-10,31.7,26.4,22.9,25.4,21.8,19.3,91,83,71,30.42,30.16,19,2,19,0.01
2013-12-11,40.6,28.2,17.9,29.7,22.1,15.5,92,79,55,30.55,30.36,21,5,21,0.06
2013-12-12,30.9,22.2,13.1,16.7,12.4,9.0,85,67,43,30.62,30.41,10,3,10,0.00
2013-12-13,45.3,32.6,20.2,32.7,20.4,13.7,91,63,36,30.42,30.14,13,2,13,0.09
2013-12-14,45.1,38.8,34.6,44.0,36.5,30.5,96,92,77,30.17,29.73,20,5,20,0.55
2013-12-15,34.6,30.5,28.1,32.5,26.8,23.8,93,86,82,30.19,29.93,20,7,20,0.00
2013-12-16,45.0,35.8,30.1,35.6,31.0,26.4,91,83,69,30.18,30.05,14,4,14,0.00
2013-12-17,42.8,36.8,29.2,36.9,32.1,25.4,89,83,77,30.25,30.02,18,5,18,0.00
2013-12-18,42.4,32.6,24.9,25.7,22.0,17.4,90,68,38,30.35,30.14,13,4,13,0.00
2013-12-19,59.7,48.5,36.7,42.0,31.7,22.0,59,52,44,30.18,30.02,22,7,22,0.00
2013-12-20,61.6,56.8,51.1,56.6,47.8,34.1,92,74,47,30.02,29.87,26,8,26,0.10
2013-12-21,71.7,63.7,57.4,63.9,59.7,55.7,95,87,76,29.88,29.52,41,9,41,1.11
2013-12-22,59.8,54.9,40.3,57.9,50.7,38.0,95,86,71,30.07,29.60,21,7,21,0.43
2013-12-23,40.3,33.9,26.4,38.1,28.0,20.8,92,79,64,30.43,30.07,17,6,17,0.01
2013-12-24,26.6,22.2,17.0,21.8,15.0,9.7,87,74,59,30.59,30.42,21,4,21,0.00
2013-12-25,40.6,29.1,17.2,22.9,17.4,12.6,83,64,35,30.52,30.27,14,3,15,0.00
2013-12-26,42.8,35.6,27.6,28.0,25.3,22.0,83,67,49,30.43,30.25,12,3,17,0.00
2013-12-27,50.9,35.8,22.3,30.3,24.7,19.2,89,67,42,30.48,30.36,10,3,12,0.00
2013-12-28,51.4,40.3,29.8,36.2,27.6,22.6,87,61,42,30.38,30.06,9,2,11,0.05
2013-12-29,46.7,39.9,31.9,41.9,37.1,28.8,95,90,79,30.09,29.87,15,5,24,0.46
2013-12-30,31.9,29.1,24.8,28.8,24.5,19.8,89,83,72,30.28,30.07,13,4,13,0.00
2013-12-31,37.8,28.4,21.7,22.8,20.5,17.2,84,73,52,30.46,30.25,18,4,18,0.00
2014-1-1,47.4,36.3,25.7,30.8,26.3,21.3,85,69,42,30.34,30.02,14,2,14,0.00
2014-1-2,38.2,28.6,14.2,35.4,24.5,9.2,95,85,66,30.32,29.83,21,6,26,0.16